| time (UTC) | temp F | wind direction | speed MPH | gust MPH | rain 1hr in | rain 24hr in | rain mn in | humidity % | barometer mb |
| 20260508043052 | 54 | 0 | 0.0 | 0.0 | 0.00 | 1.68 | 1.68 | 97 | 1015.9 |
| 20260508041535 | 54 | 0 | 0.0 | 0.0 | 0.00 | 1.68 | 1.68 | 97 | 1016.0 |
| 20260508040032 | 54 | 0 | 0.0 | 0.0 | 0.00 | 1.68 | 1.68 | 97 | 1016.1 |
| 20260508034537 | 54 | 0 | 0.0 | 0.0 | 0.00 | 1.68 | 1.68 | 97 | 1015.8 |
| 20260508033034 | 54 | 0 | 0.0 | 1.0 | 0.00 | 1.68 | 1.68 | 97 | 1015.7 |
| 20260508031533 | 54 | 0 | 0.0 | 1.0 | 0.00 | 1.68 | 1.68 | 97 | 1015.6 |
| 20260508030045 | 54 | 99 | 1.0 | 2.0 | 0.00 | 1.68 | 1.68 | 97 | 1015.4 |
| 20260508024534 | 54 | 0 | 0.0 | 2.0 | 0.00 | 1.68 | 1.68 | 97 | 1015.5 |
| 20260508023041 | 54 | 104 | 0.0 | 2.0 | 0.00 | 1.68 | 1.68 | 97 | 1015.3 |
| 20260508021538 | 54 | 0 | 0.0 | 1.0 | 0.00 | 1.68 | 1.68 | 97 | 1015.6 |
| 20260508020035 | 54 | 119 | 0.0 | 3.0 | 0.00 | 1.68 | 1.68 | 97 | 1015.7 |
| 20260508014535 | 54 | 93 | 1.0 | 2.0 | 0.00 | 1.68 | 1.68 | 96 | 1015.0 |
| 20260508013034 | 54 | 65 | 0.0 | 3.0 | 0.00 | 1.68 | 1.68 | 96 | 1014.9 |
| 20260508011539 | 54 | 116 | 2.0 | 3.0 | 0.00 | 1.68 | 1.68 | 96 | 1014.6 |
| 20260508010036 | 54 | 358 | 0.0 | 2.0 | 0.00 | 1.68 | 1.68 | 96 | 1015.0 |
| 20260508004535 | 54 | 28 | 2.0 | 3.0 | 0.00 | 1.68 | 1.68 | 96 | 1014.9 |
| 20260508003034 | 54 | 63 | 3.0 | 5.0 | 0.00 | 1.68 | 1.68 | 96 | 1015.0 |
| 20260508001531 | 54 | 66 | 4.0 | 7.0 | 0.00 | 1.68 | 1.68 | 96 | 1014.7 |
| 20260508000038 | 54 | 25 | 2.0 | 6.0 | 0.00 | 1.68 | 1.68 | 96 | 1014.9 |
| 20260507234541 | 54 | 41 | 2.0 | 4.0 | 0.00 | 1.68 | 1.68 | 96 | 1015.0 |
| 20260507233035 | 54 | 41 | 3.0 | 5.0 | 0.00 | 1.68 | 1.68 | 96 | 1015.3 |
| 20260507231535 | 54 | 41 | 2.0 | 6.0 | 0.00 | 1.68 | 1.68 | 96 | 1015.9 |
| 20260507230032 | 54 | 56 | 3.0 | 6.0 | 0.00 | 1.68 | 1.68 | 96 | 1016.1 |
| 20260507224536 | 54 | 50 | 2.0 | 6.0 | 0.00 | 1.68 | 1.68 | 96 | 1016.2 |
| 20260507223036 | 54 | 39 | 3.0 | 6.0 | 0.00 | 1.68 | 1.68 | 96 | 1016.0 |
| 20260507221533 | 54 | 28 | 2.0 | 4.0 | 0.00 | 1.68 | 1.68 | 96 | 1016.3 |
| 20260507220035 | 54 | 37 | 2.0 | 4.0 | 0.01 | 1.68 | 1.68 | 96 | 1016.6 |
| 20260507214534 | 54 | 20 | 3.0 | 6.0 | 0.05 | 1.68 | 1.68 | 96 | 1016.5 |
| 20260507213040 | 53 | 65 | 2.0 | 8.0 | 0.11 | 1.68 | 1.68 | 96 | 1016.7 |
| 20260507211536 | 53 | 37 | 4.0 | 7.0 | 0.14 | 1.68 | 1.68 | 96 | 1017.0 |
| 20260507210033 | 53 | 63 | 6.0 | 11.0 | 0.13 | 1.67 | 1.67 | 96 | 1016.3 |
| 20260507204534 | 53 | 0 | 4.0 | 8.0 | 0.13 | 1.63 | 1.63 | 96 | 1017.5 |
| 20260507203035 | 53 | 30 | 1.0 | 7.0 | 0.33 | 1.57 | 1.57 | 96 | 1017.6 |
| 20260507201541 | 54 | 289 | 2.0 | 8.0 | 0.54 | 1.54 | 1.54 | 96 | 1018.3 |
| 20260507200038 | 55 | 65 | 4.0 | 9.0 | 0.57 | 1.54 | 1.54 | 96 | 1017.4 |
| 20260507194542 | 53 | 150 | 6.0 | 12.0 | 0.52 | 1.49 | 1.49 | 96 | 1018.1 |
| 20260507193034 | 52 | 83 | 4.0 | 8.0 | 0.26 | 1.21 | 1.21 | 96 | 1017.4 |
| 20260507191535 | 53 | 318 | 4.0 | 8.0 | 0.06 | 1.00 | 1.00 | 96 | 1018.1 |
| 20260507190037 | 53 | 8 | 1.0 | 9.0 | 0.19 | 0.97 | 0.97 | 96 | 1018.5 |
| 20260507184538 | 53 | 77 | 5.0 | 10.0 | 0.18 | 0.96 | 0.96 | 96 | 1017.6 |
| 20260507183042 | 53 | 29 | 7.0 | 11.0 | 0.16 | 0.94 | 0.94 | 96 | 1017.2 |
| 20260507181538 | 53 | 115 | 10.0 | 15.0 | 0.15 | 0.93 | 0.93 | 96 | 1018.1 |
| 20260507180032 | 53 | 121 | 7.0 | 10.0 | 0.01 | 0.78 | 0.78 | 96 | 1018.8 |
| 20260507174536 | 53 | 82 | 4.0 | 8.0 | 0.25 | 0.78 | 0.78 | 96 | 1018.2 |
| 20260507173036 | 53 | 34 | 3.0 | 9.0 | 0.78 | 0.78 | 0.78 | 95 | 1019.1 |
| 20260507171535 | 52 | 17 | 4.0 | 12.0 | 0.78 | 0.78 | 0.78 | 95 | 1018.5 |
| 20260507170036 | 52 | 327 | 6.0 | 16.0 | 0.77 | 0.77 | 0.77 | 95 | 1018.0 |
| 20260507163036 | 54 | 110 | 3.0 | 8.0 | 0.00 | 0.00 | 0.00 | 86 | 1019.8 |
| 20260507161539 | 55 | 56 | 5.0 | 12.0 | 0.00 | 0.00 | 0.00 | 85 | 1018.6 |
| 20260507160037 | 55 | 86 | 6.0 | 9.0 | 0.00 | 0.00 | 0.00 | 84 | 1018.9 |
| 20260507154536 | 55 | 84 | 5.0 | 12.0 | 0.00 | 0.01 | 0.00 | 84 | 1018.8 |
| 20260507153038 | 55 | 54 | 8.0 | 13.0 | 0.00 | 0.01 | 0.00 | 85 | 1018.6 |
| 20260507151537 | 55 | 68 | 6.0 | 12.0 | 0.00 | 0.01 | 0.00 | 84 | 1019.2 |
| 20260507150038 | 54 | 45 | 5.0 | 12.0 | 0.00 | 0.01 | 0.00 | 85 | 1018.9 |
| 20260507144532 | 55 | 61 | 5.0 | 10.0 | 0.00 | 0.03 | 0.00 | 85 | 1019.0 |
| 20260507143054 | 55 | 38 | 5.0 | 12.0 | 0.00 | 0.03 | 0.00 | 85 | 1018.8 |
| 20260507141554 | 55 | 27 | 6.0 | 11.0 | 0.00 | 0.03 | 0.00 | 85 | 1019.1 |
| 20260507140037 | 55 | 41 | 6.0 | 12.0 | 0.00 | 0.03 | 0.00 | 86 | 1019.3 |
| 20260507134533 | 54 | 37 | 6.0 | 11.0 | 0.00 | 0.38 | 0.00 | 86 | 1019.2 |
| 20260507133040 | 54 | 44 | 7.0 | 16.0 | 0.00 | 0.38 | 0.00 | 87 | 1019.0 |
| 20260507131538 | 54 | 20 | 7.0 | 14.0 | 0.00 | 0.38 | 0.00 | 89 | 1018.9 |
| 20260507130040 | 54 | 41 | 6.0 | 12.0 | 0.00 | 0.38 | 0.00 | 90 | 1019.1 |
| 20260507124537 | 54 | 41 | 7.0 | 13.0 | 0.00 | 0.38 | 0.00 | 91 | 1018.7 |
| 20260507123037 | 54 | 18 | 4.0 | 11.0 | 0.00 | 0.38 | 0.00 | 92 | 1018.8 |
| 20260507121537 | 54 | 57 | 5.0 | 11.0 | 0.00 | 0.38 | 0.00 | 92 | 1018.8 |
| 20260507120035 | 54 | 24 | 4.0 | 16.0 | 0.00 | 0.38 | 0.00 | 92 | 1018.5 |
| 20260507114536 | 54 | 34 | 6.0 | 14.0 | 0.00 | 0.38 | 0.00 | 92 | 1018.1 |
| 20260507113036 | 54 | 36 | 7.0 | 13.0 | 0.00 | 0.38 | 0.00 | 92 | 1018.1 |
| 20260507111535 | 54 | 11 | 8.0 | 14.0 | 0.00 | 0.38 | 0.00 | 91 | 1018.1 |
| 20260507110035 | 54 | 49 | 6.0 | 13.0 | 0.00 | 0.38 | 0.00 | 91 | 1017.9 |
| 20260507104537 | 54 | 50 | 6.0 | 11.0 | 0.00 | 0.38 | 0.00 | 91 | 1017.9 |
| 20260507103032 | 54 | 30 | 3.0 | 9.0 | 0.00 | 0.38 | 0.00 | 92 | 1018.1 |
| 20260507101536 | 54 | 39 | 5.0 | 8.0 | 0.00 | 0.38 | 0.00 | 91 | 1017.4 |
| 20260507100046 | 54 | 36 | 5.0 | 8.0 | 0.00 | 0.38 | 0.00 | 91 | 1017.6 |
| 20260507094536 | 54 | 63 | 6.0 | 10.0 | 0.00 | 0.38 | 0.00 | 91 | 1017.4 |
| 20260507093032 | 54 | 15 | 4.0 | 7.0 | 0.00 | 0.38 | 0.00 | 92 | 1017.4 |
| 20260507091540 | 55 | 338 | 5.0 | 11.0 | 0.00 | 0.38 | 0.00 | 92 | 1016.8 |
| 20260507090040 | 55 | 28 | 4.0 | 8.0 | 0.00 | 0.38 | 0.00 | 93 | 1017.0 |
| 20260507084541 | 55 | 49 | 4.0 | 8.0 | 0.00 | 0.38 | 0.00 | 92 | 1017.2 |
| 20260507083035 | 55 | 36 | 1.0 | 5.0 | 0.00 | 0.38 | 0.00 | 93 | 1017.2 |
| 20260507081532 | 55 | 51 | 2.0 | 3.0 | 0.00 | 0.38 | 0.00 | 94 | 1017.0 |
| 20260507080032 | 55 | 70 | 1.0 | 3.0 | 0.00 | 0.38 | 0.00 | 94 | 1017.3 |
| 20260507074536 | 55 | 0 | 0.0 | 0.0 | 0.00 | 0.38 | 0.00 | 95 | 1017.2 |
| 20260507073035 | 55 | 0 | 0.0 | 0.0 | 0.00 | 0.38 | 0.00 | 95 | 1017.0 |
| 20260507071537 | 55 | 189 | 1.0 | 3.0 | 0.00 | 0.38 | 0.00 | 95 | 1017.0 |
| 20260507070041 | 55 | 0 | 0.0 | 2.0 | 0.00 | 0.38 | 0.00 | 94 | 1016.2 |
| 20260507064558 | 55 | 62 | 1.0 | 3.0 | 0.00 | 0.38 | 0.00 | 95 | 1015.7 |
| 20260507063041 | 55 | 34 | 1.0 | 4.0 | 0.00 | 0.38 | 0.00 | 95 | 1015.6 |
| 20260507061537 | 55 | 0 | 0.0 | 0.0 | 0.00 | 0.38 | 0.00 | 95 | 1015.5 |
| 20260507060039 | 55 | 0 | 0.0 | 0.0 | 0.00 | 0.38 | 0.00 | 94 | 1015.6 |
| 20260507054535 | 55 | 0 | 0.0 | 0.0 | 0.00 | 0.38 | 0.00 | 94 | 1015.6 |
| 20260507053039 | 56 | 0 | 0.0 | 0.0 | 0.00 | 0.38 | 0.00 | 94 | 1015.6 |
| 20260507051540 | 56 | 0 | 0.0 | 0.0 | 0.00 | 0.38 | 0.00 | 94 | 1015.6 |
| 20260507050041 | 56 | 0 | 0.0 | 0.0 | 0.00 | 0.38 | 0.00 | 93 | 1015.6 |
| 20260507044537 | 56 | 0 | 0.0 | 0.0 | 0.00 | 0.38 | 0.38 | 93 | 1015.7 |